Theta_e
336 336 336 339 342 339 340 341 343 342 341 344 345 344 342 342 345 348 351 354 357 353 356 358 357 357 355 353 354 355 354 355 354 352 352 352 353 354 351 349 349 355 350 351 353 354 361 360 356 356 361 359 360 365 370 371 370 360 367 371 371 369 368
333 334 335 339 340 339 340 343 345 348 348 347 346 346 343 342 345 345 352 354 355 353 355 356 358 356 354 354 353 356 355 355 355 357 352 359 359 359 352 351 352 356 364 359 359 357 360 353 359 359 361 360 357 367 363 367 368 368 364 369 365 368 366
337 337 336 339 338 339 343 346 345 346 346 345 343 347 349 349 344 350 353 352 355 353 354 354 356 353 353 354 355 353 353 351 352 350 348 347 348 347 350 355 353 350 351 354 364 353 355 356 363 367 359 362 356 363 369 367 368 362 365 369 369 362 368
337 337 341 342 344 348 344 347 347 351 348 348 350 350 345 347 345 349 348 351 353 353 352 352 352 351 350 352 351 352 352 352 351 348 347 347 347 347 350 352 356 354 353 353 354 353 353 358 356 361 364 361 362 359 362 362 359 361 363 369 369 364 370
337 338 341 340 340 344 342 346 346 348 349 347 348 350 351 349 351 346 346 349 350 353 352 352 350 350 351 350 349 350 350 349 349 348 348 348 351 351 349 349 351 352 354 351 355 359 366 360 354 357 359 364 363 363 363 361 360 367 370 367 370 367 361
338 339 340 339 340 340 341 344 347 348 350 348 348 350 350 350 349 349 347 347 347 349 351 352 351 352 351 351 350 351 351 352 354 354 350 350 351 347 348 350 351 351 352 353 354 354 356 354 356 359 355 355 356 356 358 359 359 362 365 368 368 364 359
338 339 340 341 340 345 344 346 345 344 348 351 350 350 352 352 352 352 352 352 348 346 345 347 347 348 351 352 352 353 351 350 351 350 349 348 348 349 350 350 352 351 351 354 353 355 352 354 358 359 358 358 363 353 358 366 361 362 367 369 367 366 363
343 345 344 342 341 341 344 348 346 345 348 352 349 349 349 354 355 351 353 352 355 350 345 344 345 346 349 351 351 350 350 350 350 350 350 348 348 349 350 349 350 353 353 352 353 355 353 357 354 354 358 356 358 360 363 362 365 360 360 364 366 364 362
344 347 347 345 346 344 346 346 346 350 352 351 347 348 351 354 353 350 354 355 358 358 357 345 344 347 350 349 348 349 348 349 350 349 349 349 348 347 348 350 350 353 351 350 351 353 354 355 353 357 357 355 356 358 358 361 362 363 366 366 365 365 363
343 344 345 347 351 349 350 349 353 349 350 350 348 351 352 356 357 354 352 354 358 357 352 350 357 362 353 352 349 346 346 348 348 347 347 346 347 347 347 348 349 351 351 351 349 349 352 355 354 356 360 356 355 358 357 362 362 360 361 364 363 365 363
345 344 345 345 348 349 351 350 348 351 351 351 349 351 353 355 358 356 358 361 360 358 356 353 362 361 366 352 350 348 348 344 345 346 346 345 345 346 347 347 346 348 349 349 348 349 350 354 355 355 354 348 350 355 361 360 362 362 360 362 365 366 362
343 343 344 345 348 350 349 351 352 351 350 353 353 353 355 356 357 354 356 358 354 357 361 361 360 361 361 363 354 354 353 349 346 346 347 347 346 345 346 346 346 346 347 347 348 350 347 348 348 348 353 353 353 353 358 360 359 361 361 359 361 364 363
342 343 344 344 347 349 351 352 349 352 352 353 353 354 357 356 354 355 356 360 356 355 357 358 358 363 359 360 360 355 355 353 354 350 348 351 346 346 347 345 345 345 345 347 349 348 346 346 348 351 350 356 356 358 361 361 361 364 364 364 364 364 363
340 342 344 345 346 347 348 349 352 350 352 351 351 353 354 355 356 357 357 358 361 362 357 355 356 360 360 363 363 361 355 352 352 357 361 359 355 354 349 345 344 346 347 349 348 346 347 346 344 345 347 354 352 359 362 363 361 362 363 364 365 364 361
339 339 341 343 346 346 347 350 349 351 351 349 347 349 352 352 356 358 359 360 363 364 365 359 360 361 361 364 363 361 361 358 354 357 360 366 367 355 361 366 361 361 354 352 349 346 346 347 345 347 346 347 355 362 362 363 363 361 361 364 365 363 358
337 339 341 343 344 345 348 349 341 340 347 348 347 350 350 352 354 356 357 358 361 363 365 366 366 364 362 362 363 367 369 370 367 366 367 367 368 366 361 365 366 364 367 358 362 363 359 357 354 347 344 352 358 361 360 355 350 347 346 347 352 357 357
337 341 341 344 346 347 347 345 346 347 345 345 349 349 348 349 352 355 356 357 359 361 363 365 363 363 363 361 364 367 368 365 364 363 361 360 364 364 366 366 367 367 364 363 358 362 368 357 355 355 357 356 357 357 354 347 343 338 335 338 342 352 356
339 341 343 345 346 348 346 344 345 347 348 348 348 348 347 348 350 353 353 356 357 359 362 360 360 354 348 349 351 356 361 361 361 359 358 359 361 364 368 367 366 368 366 363 358 365 364 364 362 357 357 356 354 350 344 340 335 331 333 337 337 344 354
340 341 342 344 345 346 344 342 344 347 347 349 350 351 349 349 350 352 352 352 353 356 358 358 355 349 349 349 350 350 356 358 357 357 357 356 354 351 356 351 352 362 364 364 364 365 363 366 363 362 355 353 351 347 344 340 332 332 334 336 336 339 355
341 341 342 344 345 345 343 343 345 347 348 349 351 350 352 352 351 349 348 349 353 355 354 354 349 348 349 349 351 353 355 354 353 354 354 355 352 352 352 350 346 347 347 357 364 362 363 363 364 363 360 355 352 346 343 341 335 333 334 336 340 346 351
341 342 342 343 343 344 344 343 344 346 348 349 350 350 351 351 351 350 349 349 349 354 354 345 341 342 343 345 346 349 353 351 350 350 352 355 350 348 347 347 345 343 345 343 349 350 348 344 346 356 357 354 346 343 341 340 329 332 336 336 336 339 346
341 342 342 343 344 345 344 344 345 346 348 351 350 350 350 350 351 351 351 352 351 352 351 346 340 337 341 345 345 348 350 352 351 351 354 352 348 346 346 347 344 343 345 344 346 350 347 348 353 349 348 347 346 343 340 337 328 333 334 334 336 341 344
341 342 343 344 344 344 346 348 347 349 351 350 350 351 350 351 351 351 350 350 349 349 350 350 346 344 343 342 347 349 349 351 351 350 348 348 346 345 347 345 342 345 346 343 345 346 347 347 347 348 346 345 343 341 340 338 327 325 327 330 333 339 341
341 343 341 343 346 346 346 347 346 348 348 348 348 350 351 351 351 350 348 348 348 348 347 347 346 344 342 342 346 348 349 350 349 348 348 346 345 346 345 342 341 344 345 343 343 342 343 344 344 345 344 342 340 340 337 335 327 320 321 325 330 339 339
339 339 341 342 342 344 343 345 346 347 347 348 348 349 350 350 350 348 347 347 347 347 346 345 345 344 344 345 344 343 346 348 347 347 345 345 345 344 343 342 341 342 342 342 341 341 341 341 339 339 339 339 338 338 335 333 329 318 320 324 328 335 337
338 339 340 340 342 344 346 348 348 347 348 347 348 350 350 349 348 347 346 346 346 345 345 346 346 346 345 345 346 346 346 347 346 346 344 340 340 340 339 339 337 337 338 338 339 338 337 337 336 334 334 335 335 335 334 332 332 327 320 321 324 329 336
339 339 339 339 342 346 346 347 347 346 347 348 348 348 349 347 345 346 345 346 345 345 346 347 347 346 346 344 345 344 343 344 344 342 340 339 338 337 336 335 334 334 334 334 334 334 333 333 332 331 331 333 333 333 333 332 330 326 319 319 322 326 332
339 339 340 344 346 345 345 345 345 345 345 347 344 346 344 345 344 344 344 344 343 344 346 346 345 344 345 344 341 339 339 339 339 340 340 338 337 335 334 334 333 332 332 333 333 331 330 330 330 330 330 331 332 332 332 334 333 329 319 317 316 321 327
340 339 340 342 343 344 343 343 342 339 338 339 339 340 342 342 341 341 344 342 343 344 342 342 342 342 342 340 338 337 336 337 337 337 337 337 336 333 331 332 332 332 333 331 330 329 328 329 329 329 330 331 331 331 331 331 331 327 325 317 315 316 319
342 342 342 341 341 342 342 342 338 336 337 337 339 342 342 341 342 342 342 342 345 344 342 341 342 342 340 338 337 336 337 337 337 336 336 336 334 333 331 331 333 333 333 332 331 329 330 331 331 330 330 329 329 328 328 328 327 324 323 321 315 314 315
341 341 340 341 339 341 342 339 336 335 334 338 340 340 340 342 342 342 341 343 345 343 341 340 341 340 338 337 337 336 336 336 336 335 334 334 333 332 332 331 333 332 333 334 333 333 331 330 330 329 329 329 327 326 326 326 324 322 320 318 316 314 313
341 341 339 340 339 340 341 341 337 336 335 338 339 340 341 345 343 342 341 343 344 343 342 341 340 339 338 337 336 336 336 335 335 335 334 333 333 332 332 333 333 332 334 335 334 332 330 329 329 329 328 328 328 327 326 326 326 325 324 324 321 317 313
340 339 338 335 340 340 341 337 334 334 336 336 340 339 340 344 342 343 344 343 342 342 343 341 339 339 339 337 336 336 335 334 333 333 333 333 333 333 334 334 333 333 334 334 332 330 329 329 329 329 328 328 328 328 328 327 326 326 326 324 322 321 320
338 337 337 339 340 342 340 339 336 335 337 338 338 339 340 340 341 342 342 342 341 341 341 341 339 337 337 336 336 335 332 330 334 332 329 329 329 332 333 334 333 332 333 332 331 329 329 329 329 329 329 328 328 328 328 327 327 327 327 325 323 320 319
338 338 337 338 341 341 339 339 338 338 337 337 339 340 339 340 340 341 341 341 341 342 340 338 338 337 336 335 334 338 332 329 329 328 325 322 319 314 311 313 327 329 324 320 319 328 331 331 330 331 331 330 330 329 327 327 327 328 323 328 318 322 321
337 336 338 340 340 340 339 338 337 337 336 337 340 340 339 340 342 341 340 341 342 342 341 339 336 337 336 332 335 332 330 328 326 326 325 323 321 319 315 310 301 306 322 322 316 309 305 318 332 331 331 331 333 332 328 326 327 314 309 308 308 310 313
337 339 338 339 338 338 337 337 338 338 337 338 340 339 337 339 341 341 341 342 342 341 341 339 337 337 335 331 331 329 328 327 327 327 328 326 325 325 323 320 315 300 300 307 309 305 303 306 309 314 319 327 322 317 312 310 306 303 300 299 298 298 300
338 339 338 338 338 338 337 337 336 336 336 337 339 339 339 338 340 342 341 342 343 343 342 339 338 335 325 325 328 331 331 328 330 329 329 329 329 329 327 325 322 318 305 300 303 303 301 302 304 305 308 311 314 316 312 305 301 299 299 299 299 299 298
Wind_Speed
8 8 11 8 7 5 7 8 7 8 11 11 9 9 12 10 10 11 12 12 12 11 12 11 10 10 10 9 9 8 8 7 6 6 5 5 5 6 7 8 7 5 7 7 6 5 3 5 6 5 5 7 4 3 3 3 3 4 3 2 2 2 3
11 11 11 9 10 10 7 6 5 1 6 9 7 8 10 9 10 11 11 12 13 12 12 12 11 10 10 9 10 8 8 8 8 6 7 5 5 5 5 6 6 5 3 3 4 4 4 6 4 4 5 5 5 3 4 4 3 3 3 3 3 3 3
10 10 10 7 10 9 7 7 3 4 3 5 4 12 11 4 10 8 11 13 13 13 12 13 12 11 10 9 9 10 10 10 9 10 10 9 10 10 8 5 5 6 7 5 3 5 5 5 3 3 6 4 6 4 3 4 3 3 4 2 2 3 2
9 9 9 7 6 5 6 4 7 5 5 6 4 5 7 15 8 9 11 13 14 14 13 14 13 13 12 11 11 10 11 10 10 10 10 9 10 9 6 6 5 6 7 7 6 5 6 6 6 4 6 5 4 6 6 5 5 4 4 3 3 4 3
8 9 8 5 7 5 4 4 6 7 9 7 8 10 8 10 13 11 11 13 14 14 15 14 13 12 12 13 10 10 12 13 11 10 10 9 7 8 9 10 9 9 6 9 8 5 2 4 8 6 5 4 4 4 4 5 5 2 0 1 0 1 4
9 8 9 7 7 9 9 8 7 10 10 7 9 9 9 9 7 8 12 13 13 13 14 14 14 12 13 13 11 11 11 11 8 9 9 9 9 10 11 10 10 10 8 7 5 7 8 6 5 4 6 8 8 6 7 7 5 3 2 2 2 1 3
9 9 9 11 9 7 9 9 9 9 10 9 7 5 5 7 9 8 2 3 9 14 14 15 14 14 12 11 11 12 13 13 12 13 11 12 11 10 10 9 9 10 8 7 6 5 8 7 6 5 5 3 3 6 6 4 5 3 3 3 3 4 4
7 8 7 9 12 13 11 8 7 7 6 8 4 6 8 6 6 6 5 6 5 7 13 14 14 13 11 10 11 12 13 13 13 12 11 12 12 12 11 11 9 7 8 12 10 8 8 6 7 7 7 7 6 2 3 4 4 6 4 4 4 4 4
7 6 6 6 6 5 9 9 8 6 5 8 11 10 10 8 7 8 7 7 7 4 4 12 14 11 9 10 10 13 12 12 12 12 13 13 11 12 12 10 10 7 8 7 8 8 7 7 9 5 4 7 8 7 6 5 6 5 3 2 3 3 3
6 5 5 6 4 4 4 8 10 10 7 7 6 6 7 7 5 6 8 9 6 5 7 9 3 0 9 10 10 13 13 12 11 13 13 13 11 12 12 11 10 10 9 10 8 9 8 9 7 4 5 5 5 9 7 5 4 5 4 4 4 4 4
4 4 4 5 7 6 6 5 7 7 8 10 9 6 6 6 4 5 4 4 4 5 5 9 2 3 2 10 10 10 9 12 12 12 13 13 12 13 12 12 11 9 9 10 9 7 7 5 7 7 8 9 6 4 8 6 3 1 2 4 4 4 4
4 4 3 4 4 6 7 6 5 6 7 6 8 7 6 5 4 5 5 6 6 4 2 5 3 4 3 3 8 8 8 9 10 11 10 11 12 12 12 11 10 10 10 10 8 7 8 9 9 8 6 5 5 5 5 6 6 7 6 5 4 4 3
4 3 4 3 4 5 6 5 7 6 6 5 5 4 4 5 6 6 6 6 8 8 5 5 6 5 6 4 6 8 7 7 6 7 9 9 10 9 9 10 11 11 10 9 7 7 8 8 6 4 5 4 4 1 5 5 5 4 2 2 3 3 4
2 3 4 3 3 4 7 7 6 7 7 5 3 2 3 4 5 6 7 6 6 8 12 8 10 9 6 6 5 4 8 8 7 5 4 4 7 6 7 9 9 8 7 5 7 8 8 8 8 7 6 3 4 6 7 5 4 3 2 2 2 3 3
5 5 4 4 4 3 5 5 4 2 8 8 4 5 5 3 4 5 5 6 5 6 7 11 12 9 7 6 6 6 6 7 7 6 5 3 3 6 4 2 3 4 4 5 6 8 8 7 7 5 6 7 3 8 6 4 4 3 3 1 3 3 4
4 3 3 3 3 3 3 5 10 5 2 6 10 7 4 5 5 5 5 4 4 4 5 5 6 7 7 6 6 6 4 2 3 1 2 3 2 3 4 1 2 3 2 3 1 2 3 3 3 4 6 7 11 7 6 5 4 6 8 7 4 3 3
2 3 4 2 3 3 5 6 5 6 6 2 4 7 6 4 5 4 4 4 4 4 4 5 5 7 6 4 4 5 3 2 1 1 1 2 3 1 1 2 1 2 2 2 3 2 2 2 1 1 6 10 8 9 7 5 5 8 8 9 11 6 4
3 4 4 4 4 3 5 6 4 5 5 7 7 6 4 5 6 5 5 4 5 5 4 4 4 4 10 8 8 6 1 2 2 2 1 0 2 3 2 2 1 1 1 1 3 2 2 3 2 1 8 6 9 9 7 6 6 7 7 8 7 4 2
3 4 4 5 4 4 6 4 5 4 4 4 5 4 7 6 5 4 2 4 5 5 5 6 4 9 4 7 6 9 5 4 4 3 2 1 1 3 6 9 10 6 2 3 3 3 2 2 3 3 10 9 9 8 7 6 5 6 6 4 2 3 6
2 2 4 4 4 5 7 4 3 3 5 5 5 6 6 7 5 4 4 6 8 7 5 2 7 5 1 2 3 4 4 5 3 3 4 3 3 4 5 3 3 3 10 10 4 3 0 3 5 4 8 8 8 8 7 6 4 7 6 3 5 12 11
3 3 3 3 3 4 8 4 5 5 6 6 7 6 6 6 7 8 8 7 9 4 3 6 5 2 4 7 7 5 4 4 4 4 4 5 6 2 1 4 4 6 3 5 6 4 6 9 7 3 6 9 10 8 7 4 6 7 8 12 15 14 11
4 4 4 3 3 4 7 8 7 5 5 4 4 5 4 4 4 3 4 4 4 3 3 8 9 8 9 9 8 5 4 4 4 4 3 5 8 7 5 5 5 4 6 4 1 1 7 7 5 6 7 8 9 9 8 5 6 6 4 11 15 15 9
4 5 4 3 3 5 5 6 7 6 5 5 4 3 4 4 3 3 4 3 2 3 4 4 7 8 6 5 5 6 7 6 4 2 2 4 7 7 4 4 3 4 6 4 2 2 5 7 7 6 7 8 8 10 9 6 5 7 7 8 13 11 9
2 2 3 4 4 4 5 6 5 5 6 6 5 5 3 3 2 3 3 4 3 3 2 3 5 6 5 6 4 2 3 2 2 1 2 5 6 7 6 5 4 1 7 8 5 4 6 7 8 7 6 8 9 9 8 6 5 9 10 12 12 9 9
4 5 4 5 5 5 4 3 2 3 4 5 6 6 5 4 4 4 5 5 4 3 3 3 4 4 3 3 3 2 2 2 0 3 2 3 5 8 7 6 6 4 7 7 5 5 7 8 9 8 8 8 10 12 11 7 6 11 13 15 14 10 7
4 4 4 4 4 3 3 1 3 3 4 5 6 5 4 5 5 5 5 6 5 5 5 5 5 5 6 7 7 5 4 4 4 5 6 7 6 6 7 7 7 6 7 6 5 5 7 8 9 10 8 7 7 8 9 10 7 10 16 15 15 12 8
4 3 2 2 3 2 2 3 3 4 3 3 1 2 3 4 5 5 6 6 6 7 7 7 6 6 6 6 5 4 6 5 5 7 8 8 7 7 7 7 7 7 7 8 8 8 8 9 9 11 9 8 7 8 7 7 10 9 13 15 15 13 10
4 4 4 2 4 2 3 3 2 3 2 6 6 1 2 2 5 5 7 7 8 8 9 10 9 8 8 10 10 9 9 9 9 8 7 6 7 6 7 7 7 7 7 7 9 11 11 10 9 10 10 8 8 9 8 9 12 8 11 13 13 12 11
3 3 3 3 3 3 2 2 2 11 13 10 8 9 10 7 5 4 6 8 7 9 10 9 9 9 9 9 9 9 8 9 9 7 6 6 7 9 9 8 8 9 9 9 10 12 11 11 10 11 11 9 8 7 8 8 9 13 11 14 15 16 14
5 4 3 3 2 1 1 6 11 8 7 5 6 7 5 4 2 5 7 6 5 8 8 8 8 8 9 8 8 9 9 9 10 10 9 8 8 9 9 9 9 8 9 9 10 11 11 10 9 10 11 10 8 8 8 7 6 10 12 12 15 15 15
6 5 3 2 2 4 6 11 10 6 4 1 2 3 2 2 5 9 8 5 5 8 7 7 7 8 9 9 9 9 9 9 9 9 9 9 10 10 8 9 7 7 7 9 10 10 11 9 9 10 10 9 8 8 7 7 6 6 11 16 15 15 16
4 4 3 3 2 3 4 10 10 4 3 5 5 3 1 2 6 8 7 6 6 7 7 7 8 8 9 10 9 10 10 10 10 9 9 10 9 10 10 9 8 9 7 7 8 8 9 8 9 9 9 10 9 8 8 7 7 7 8 10 12 12 17
4 3 3 3 7 5 6 10 5 4 4 6 6 4 1 3 6 7 7 6 5 6 7 8 7 8 8 9 10 10 10 11 9 9 9 10 10 9 8 8 11 9 5 5 7 9 9 9 10 10 9 10 10 10 9 9 9 8 8 9 9 8 10
4 4 3 7 6 6 9 9 7 5 6 7 7 6 5 1 4 8 7 6 6 7 7 6 8 11 11 11 9 9 9 9 12 10 8 8 7 7 8 10 10 8 6 6 8 8 8 9 10 11 11 11 11 10 9 10 9 8 8 9 9 9 10
3 3 3 7 8 8 9 9 9 8 6 6 6 7 5 4 6 8 9 7 6 5 6 7 8 10 13 12 9 8 9 9 9 8 8 9 9 8 6 5 5 5 4 4 4 1 8 10 9 10 11 10 10 10 10 9 9 7 6 10 11 11 9
4 5 7 9 7 8 9 8 8 8 8 6 5 5 5 3 6 7 8 6 4 4 5 6 6 6 7 8 7 7 9 9 8 8 8 8 8 8 9 14 13 9 4 3 5 2 4 1 8 12 11 10 8 7 8 8 7 12 17 16 14 12 11
5 7 8 8 9 8 9 8 8 8 7 7 8 9 9 6 5 5 6 4 4 3 4 5 5 4 7 9 8 9 10 10 10 8 6 7 8 8 9 7 9 15 15 11 7 9 14 18 19 18 14 11 7 11 17 14 14 16 13 12 11 12 13
6 8 10 7 7 8 9 10 9 9 7 5 7 9 9 9 7 6 8 7 6 5 6 7 6 4 7 8 9 10 8 8 8 9 8 7 7 8 8 8 9 10 15 14 14 17 17 17 18 18 18 17 16 11 7 11 14 14 14 13 14 14 14
Wind_Direction
211 193 203 160 150 139 213 197 199 196 202 179 196 195 184 176 155 152 162 169 169 175 172 176 177 178 179 181 181 186 179 177 189 186 186 184 191 183 184 193 200 206 192 187 201 217 178 181 192 210 174 179 209 190 176 206 207 222 224 283 257 269 288
194 200 212 178 158 167 185 182 199 122 50 27 318 220 194 185 154 166 160 169 173 178 175 177 178 179 184 184 180 186 183 180 190 180 197 182 187 198 195 194 204 189 210 220 180 198 171 203 209 205 152 164 199 188 192 198 204 235 236 190 211 234 258
184 199 183 170 159 172 193 135 145 109 97 121 101 332 326 289 168 166 155 169 176 178 181 181 179 182 184 191 178 185 187 184 191 191 195 196 198 202 199 195 200 193 198 212 278 191 195 191 205 175 138 190 200 176 200 213 212 221 231 178 267 257 249
182 188 151 153 131 147 191 173 149 117 94 127 142 183 171 296 236 168 167 177 178 180 187 183 185 183 184 188 189 183 191 191 192 194 199 201 199 203 193 201 202 208 192 179 199 215 192 163 202 217 170 188 200 172 196 212 211 214 226 197 197 236 220
194 171 139 140 139 142 198 179 161 125 151 191 175 184 205 205 254 190 185 184 186 184 190 187 188 187 187 187 194 190 193 194 196 197 201 208 198 198 202 203 198 215 201 185 189 202 109 222 194 194 182 190 161 178 206 207 219 195 188 29 266 0 56
167 178 152 166 169 174 191 196 180 152 150 170 184 189 207 211 219 227 196 193 186 191 191 192 191 190 193 192 197 192 192 198 197 202 199 201 203 198 206 205 199 207 196 205 212 191 170 208 226 192 199 195 203 198 199 201 197 166 193 208 184 99 84
163 164 163 158 186 188 173 177 179 177 163 157 191 203 203 212 193 194 144 188 203 191 193 196 196 190 194 196 199 196 193 196 197 205 204 204 203 208 205 206 208 205 188 185 211 224 191 198 187 211 193 187 239 186 203 183 174 180 168 183 163 140 150
140 144 160 170 184 187 174 159 165 175 166 125 199 221 214 216 181 196 191 179 223 230 198 197 201 192 188 198 195 204 196 198 194 203 206 211 203 208 210 207 209 200 197 190 196 201 198 206 203 203 180 184 214 126 132 154 172 184 189 190 180 172 164
135 143 148 171 166 177 147 159 161 130 129 149 187 211 205 193 191 196 201 209 219 216 261 204 201 198 180 194 194 201 203 201 196 197 207 212 214 206 213 210 209 207 205 230 199 193 189 201 212 210 198 188 186 179 192 166 175 170 182 192 168 186 136
129 135 148 144 149 157 168 167 147 144 168 182 206 218 197 190 180 195 197 209 208 214 227 234 196 231 177 182 202 202 204 202 203 199 202 210 215 217 212 211 202 203 209 213 214 201 196 183 190 201 221 230 216 172 184 156 152 173 175 179 183 168 159
124 126 139 155 151 163 170 194 161 155 160 181 188 210 206 184 178 202 231 193 172 184 230 242 152 145 289 185 197 206 210 203 206 207 203 208 211 216 216 215 207 198 206 217 214 206 197 187 195 206 205 214 195 209 119 181 162 125 238 202 170 178 169
158 141 164 152 150 161 172 179 190 165 180 179 168 188 194 191 172 200 225 221 195 174 37 317 262 212 203 226 195 205 209 214 203 211 209 210 216 212 214 215 216 203 202 212 214 206 204 199 205 212 201 194 204 203 164 130 159 176 209 190 164 145 143
148 154 155 164 156 165 157 170 185 193 182 159 147 178 163 200 185 191 215 214 188 167 158 237 278 235 197 199 211 201 208 214 230 211 206 196 217 221 222 223 216 221 209 194 213 212 211 219 202 200 219 191 191 250 106 100 111 133 130 148 117 147 148
165 185 163 171 183 192 170 180 180 172 197 153 151 183 137 220 212 205 203 212 197 174 161 179 234 232 208 193 205 219 204 210 226 239 233 201 198 228 215 219 221 215 222 201 193 215 218 220 221 197 199 200 160 113 110 115 128 124 147 133 135 154 146
201 195 183 187 198 199 175 151 160 173 172 152 181 221 189 206 227 218 210 215 195 187 181 174 194 205 202 187 189 211 222 214 215 221 239 254 205 215 242 246 252 226 204 210 209 203 208 216 228 228 182 195 118 86 99 106 98 59 22 192 167 162 127
211 193 191 199 183 154 130 150 108 241 288 176 181 205 200 211 222 216 221 220 213 201 197 194 197 199 198 196 187 190 195 156 94 70 348 301 250 214 211 184 4 331 163 173 164 184 187 194 232 252 229 108 106 118 103 75 61 43 42 42 26 346 90
154 190 183 160 121 137 114 66 126 175 164 209 205 198 200 207 237 228 235 233 234 229 213 215 209 217 203 212 186 174 147 153 170 120 168 350 309 130 68 66 31 336 9 55 70 73 72 58 44 36 57 97 108 105 106 88 58 34 28 28 24 13 36
188 187 175 157 142 143 120 131 182 179 163 177 204 186 198 234 243 234 229 238 239 221 210 217 217 55 32 5 321 312 202 197 188 175 171 24 353 350 57 59 151 294 321 224 175 116 123 121 105 79 102 103 103 97 91 81 57 49 43 33 11 15 341
201 196 175 171 157 161 117 175 210 195 185 185 190 182 189 205 223 243 281 259 230 253 234 224 117 96 179 225 223 229 213 184 185 176 150 95 53 24 36 23 352 334 275 222 210 148 170 153 121 129 112 117 115 105 100 101 74 72 53 43 7 310 104
191 186 166 184 172 151 111 232 223 196 186 196 188 188 188 188 181 202 236 268 274 251 245 259 88 116 158 323 266 259 233 204 176 168 164 142 85 45 55 96 204 15 325 323 1 14 324 159 128 87 96 116 110 99 98 91 85 84 66 43 105 105 99
188 194 181 163 171 151 128 198 235 210 193 198 198 191 181 182 179 182 194 217 239 222 227 76 54 7 270 235 231 219 221 192 200 186 191 159 124 81 88 122 134 183 185 14 344 64 51 10 333 95 112 114 110 106 99 94 96 86 91 94 89 90 89
187 191 197 183 168 155 143 172 222 207 200 218 197 162 182 173 185 198 207 197 205 178 159 142 165 198 235 236 234 218 215 206 196 207 175 121 137 161 177 162 190 155 109 107 297 124 134 171 133 83 75 88 105 105 103 88 73 89 100 113 109 102 102
169 193 161 157 184 178 163 161 191 199 192 195 175 171 196 167 179 169 179 185 173 154 168 166 156 167 203 272 258 214 219 213 195 166 78 89 117 144 176 155 122 106 117 131 242 152 126 125 110 106 101 99 101 107 105 99 70 83 74 80 105 106 108
113 115 185 180 154 170 178 194 198 191 209 189 179 178 177 164 154 151 161 128 121 137 167 189 170 170 176 239 266 219 150 191 201 118 157 129 142 159 142 123 104 107 151 162 172 133 114 108 97 83 84 96 103 108 106 91 69 86 89 90 86 97 108
186 212 187 164 191 182 197 191 203 193 214 198 189 185 179 162 163 147 125 117 110 109 123 126 145 168 167 178 156 232 216 164 17 37 36 129 138 136 139 138 125 136 139 141 125 117 102 85 86 82 74 83 97 95 95 90 73 77 81 85 88 92 102
204 190 189 189 180 167 153 163 169 203 212 211 200 189 174 164 156 122 124 115 114 109 107 103 98 103 78 57 45 46 58 65 73 62 82 78 91 98 105 116 121 132 130 126 109 99 94 98 100 98 89 75 72 80 92 86 56 74 88 89 90 94 99
186 190 167 202 130 132 163 191 211 201 202 197 187 157 179 165 103 103 112 109 106 88 77 83 99 100 109 118 115 92 73 59 76 78 78 92 97 106 105 108 114 113 111 108 107 104 98 100 100 97 94 85 83 81 61 83 92 77 89 93 98 102 107
178 159 181 68 96 182 205 213 170 196 178 52 338 305 299 64 78 118 110 103 87 83 83 74 67 67 71 76 68 63 63 66 72 75 85 92 93 81 84 87 94 96 100 111 116 109 104 106 104 101 94 85 85 79 84 79 88 103 89 89 88 95 106
189 185 171 165 188 217 231 210 56 39 27 16 12 4 336 22 77 83 81 79 85 86 78 78 85 89 80 78 79 77 77 81 86 92 93 85 93 103 107 110 108 106 100 100 99 98 99 96 100 98 97 95 83 84 86 87 88 92 89 89 88 85 81
170 185 170 212 204 184 190 76 64 56 31 13 3 4 46 95 139 108 95 93 82 86 92 104 113 112 107 101 100 100 100 103 105 107 108 102 98 106 111 112 110 109 113 120 118 118 113 111 109 105 102 99 95 93 89 82 75 82 90 90 89 88 90
175 183 189 191 117 66 46 73 83 111 177 138 87 76 47 167 134 114 106 105 103 96 99 109 114 109 105 104 103 104 104 101 103 102 105 110 113 112 110 112 109 108 118 119 114 112 113 115 109 106 107 102 103 102 94 84 80 78 81 88 89 93 95
179 196 160 149 136 76 48 96 113 147 151 85 79 103 352 89 110 110 109 112 102 109 118 113 108 106 104 103 102 102 103 104 104 104 108 112 117 121 125 119 118 118 114 112 109 114 115 115 114 114 113 116 114 108 105 103 99 96 94 90 86 84 86
183 179 174 133 100 97 98 105 126 134 97 111 122 121 85 53 111 105 107 106 113 115 112 106 109 105 103 102 106 107 111 112 115 116 116 115 115 120 119 123 126 124 119 118 122 121 123 123 124 118 117 126 126 123 119 117 113 109 107 104 100 98 98
167 170 138 101 108 108 109 118 129 134 127 119 122 130 126 131 127 117 116 116 121 116 120 129 119 112 111 112 111 108 104 99 99 103 96 87 87 102 122 134 135 129 115 119 127 133 128 130 131 130 134 136 137 133 132 130 129 128 129 123 117 115 111
140 101 118 106 100 105 112 120 126 129 129 123 127 136 142 151 135 125 113 121 128 142 138 135 134 127 127 122 117 112 120 114 112 103 98 91 78 61 31 358 7 47 69 29 350 129 142 142 133 136 139 142 143 145 139 138 139 144 125 124 129 127 128
168 149 111 103 103 111 118 122 133 127 129 138 136 132 130 117 105 117 121 127 130 136 123 114 102 100 95 105 117 128 121 113 103 104 107 106 104 95 71 53 50 23 30 51 7 343 280 37 134 141 147 141 138 142 141 137 125 117 116 125 133 142 147
141 121 115 119 115 118 124 125 122 116 123 138 142 134 135 136 119 120 124 134 153 151 118 124 126 147 161 152 157 124 118 125 121 116 107 104 105 98 98 92 60 47 35 37 43 53 73 86 84 87 90 105 92 82 94 107 111 111 115 115 122 127 126
136 128 125 131 129 130 128 128 130 126 139 155 137 126 126 129 138 138 145 163 160 162 168 171 178 156 104 86 82 101 116 117 116 119 116 117 115 110 110 100 89 57 38 40 58 58 61 77 91 97 101 107 112 108 85 97 107 113 117 125 126 117 103